This is the latest recevied weather packets stored in our database for station/object DL1MMS-10. If no packets are shown the sender has not sent any weather packets the latest 10 day(s).
| Time | Temp. | Humidity | Pressure | Rain* | Wind** | Luminosity | Snow |
|---|---|---|---|---|---|---|---|
| 1778074461 | 12.22° C | 82% | 1007.4 hPa | 0 mm | - | - | - |
| 1778074160 | 11.11° C | 80% | 1007.6 hPa | 0 mm | - | - | - |
| 1778073860 | 11.11° C | 78% | 1008 hPa | 0 mm | - | - | - |
| 1778073560 | 11.11° C | 76% | 1008.1 hPa | 0 mm | - | - | - |
| 1778073260 | 11.67° C | 75% | 1008.1 hPa | 0 mm | - | - | - |
| 1778072959 | 12.78° C | 73% | 1008.2 hPa | 0 mm | - | - | - |
| 1778072659 | 13.89° C | 67% | 1008.1 hPa | 0 mm | - | - | - |
| 1778072359 | 15° C | 62% | 1008 hPa | 0 mm | - | - | - |
| 1778072058 | 15.56° C | 58% | 1007.5 hPa | 0 mm | - | - | - |
| 1778071758 | 16.11° C | 55% | 1007 hPa | 0 mm | - | - | - |
| 1778071458 | 16.67° C | 54% | 1006.5 hPa | 0 mm | - | - | - |
| 1778071158 | 17.22° C | 53% | 1006.5 hPa | 0 mm | - | - | - |
| 1778070857 | 17.78° C | 53% | 1006.3 hPa | 0 mm | - | - | - |
| 1778070557 | 18.33° C | 51% | 1006.1 hPa | 0 mm | - | - | - |
| 1778070257 | 18.89° C | 51% | 1006.1 hPa | 0 mm | - | - | - |
| 1778069956 | 18.89° C | 51% | 1006.3 hPa | 0 mm | - | - | - |
| 1778069656 | 18.89° C | 50% | 1006.4 hPa | 0 mm | - | - | - |
| 1778069356 | 18.89° C | 50% | 1006.6 hPa | 0 mm | - | - | - |
| 1778069056 | 18.89° C | 49% | 1006.7 hPa | 0 mm | - | - | - |
| 1778068755 | 18.89° C | 49% | 1006.7 hPa | 0 mm | - | - | - |
| 1778068455 | 19.44° C | 49% | 1006.5 hPa | 0 mm | - | - | - |
| 1778068155 | 19.44° C | 49% | 1006.6 hPa | 0 mm | - | - | - |
| 1778067854 | 19.44° C | 49% | 1006.6 hPa | 0 mm | - | - | - |
| 1778067554 | 19.44° C | 49% | 1006.6 hPa | 0 mm | - | - | - |
| 1778067254 | 19.44° C | 50% | 1006.5 hPa | 0 mm | - | - | - |
* Rain latest hour (hover to see other rain measurements)
** Current wind speed in m/s (hover to see current wind gust speed)